Погода Александровское

Погода Александровское : погода сейчас, прогноз погоды и архив. Всё, что Вы хотите узнать о погоде Александровское!

Хотите узнать прогноз погоды Александровское? Тогда Вам сюда: Погода Александровское

Поиск расширенной информации на нашем сайте:

Другие новости

Новости СМИ2

Главная страница сайта

Новости сайта

03.07.2017

Напоминаем, что на нашем специализированном сайте Метеоцентр.Азия вы можете получить высокодетализированные автоматические прогнозы погоды по пунктам России, СНГ и мира в авиационном формате (включающие направление и скорость ветра, видимость, явления погоды, количество и форму облачности, нижнюю и верхнюю границу облачности).


Погода Александровское - сегодня

Время (UTC), дата Ветер
(°,м/с) 
Видим.   Явления Облачность Т
(°С)
Тd
(°С)
f(%) Тe
(°С)
Pmin
(гПа)
dP
(гПа)
Po
(мм)
O2
(г/м3)
Тmin Tmax R s Состояние
почвы
18 21.11.17 260 (З) 50000 м  {ливн. осадки}  10/10 720 м кучево-дожд. 
[Cb calv]
-0.4 -1.5 92 -3  1021  1.4  761  307           
21 21.11.17 270 (З) 50000 м  слаб. ливневой снег  10/10 800 м кучево-дожд. 
[Cb calv]
-0.1 -1.8 88 -2  1023.5  2.6  763  308           
00 22.11.17 260 (З) 50000 м  {ливн. осадки}  9/9 1110 м кучево-дожд. 
[Cb calv]
-0.8 -1.8 93 -2  1025.3  1.7  764  309  -1.5    0.4  26  равномерный
сухой снег
100% 
03 22.11.17 220 (ЮЗ) 20000 м    9/9 1000 м кучево-дожд. 
[Cb calv]
-1.1 -1.8 95 -1  1026.5  1.2  765  310           
06 22.11.17 200 (Ю) 10 км  слаб. ливневой снег  10/10 210 м кучево-дожд. 
[Cb calv]
-0.8 -1.6 94 -2  1027.1  0.6  766  310           
09 22.11.17 130 (ЮВ) 10 км  слаб. ливневой снег  10/10 300 м кучево-дожд. 
[Cb calv]
-0.8 -1.4 96 -2  1026.8  -0.3  765  310           
12 22.11.17 150 (ЮВ) 50000 м  {ливн. осадки}  9/9 800 м кучево-дожд. 
[Cb calv]
-0.8 -1.2 97 -2  1025.5  -1.3  764  309    -0.5     
15 22.11.17 120 (ЮВ) 50000 м    10/10 300 м кучево-дожд. 
[Cb calv]
-1.2 -2 94 -1  1024.8  -0.7  764  309           
18 22.11.17 170 (Ю) 50000 м    10/4 600 м верхняя 
[Sc|Ci fib]
-2.7 -3.5 94 -4  1023.3  -1.5  763  311           
21 22.11.17 210 (ЮЗ) 50000 м    5/0 верхняя 
[Ci fib]
-7 -7.7 95 -8  1023.5  0.1  763  316           
00 23.11.17 230 (ЮЗ) 50000 м    3/0 верхняя 
[Ci fib]
-9.2 -10.1 93 -9  1023.3  -0.3  763  319  -9.2      26  равномерный
сухой снег
100% 
03 23.11.17 330 (СЗ) 20000 м    8/0 верхняя 
[Ci fib]
-9.9 -10.8 93 -10  1023.6  0.3  763  320  -10.2         
06 23.11.17 230 (ЮЗ) 20000 м    10/0 верхняя 
[Ci fib]
-9 -9.9 93 -9  1024  0.4  763  319           
09 23.11.17 210 (ЮЗ) 20000 м    10/0 верхняя 
[Ci fib]
-7.4 -8.5 92 -9  1024.1  0.2  763  317           
12 23.11.17 130 (ЮВ) 50000 м    6/0 верхняя 
[Ci fib]
-11.9 -13 92 -12  1024.4  0.1  763  323    -7.1       
15 23.11.17 210 (ЮЗ) 50000 м    8/0 верхняя 
[Ci fib]
-10.8 -11.8 92 -11  1024  -0.3  763  321           
18 23.11.17 140 (ЮВ) 50000 м    8/3 1000 м верхняя 
[Sc|Ci fib]
-8.4 -9.4 92 -8  1022.4  -1.6  762  318           
21 23.11.17 100 (В) 50000 м    8/3 1000 м верхняя 
[Sc|Ci fib]
-8.7 -9.7 92 -8  1021.5  -0.9  761  318           
00 24.11.17 180 (Ю) 50000 м    6/6 800 м 
[Sc]
-6.5 -7.9 90 -8  1019.9  -1.5  760  315  -12.8      26  равномерный
сухой снег
100% 
03 24.11.17 190 (Ю) 20000 м    8/8 800 м 
[Sc]
-6.2 -8.3 85 -8  1017.8  -2.1  759  314           
06 24.11.17 220 (ЮЗ) 20000 м    8/8 800 м 
[Sc]
-1.6 -5.7 74 -4  1016.2  -1.5  758  308           
09 24.11.17 220 (ЮЗ) 5{10}  20000 м    9/9 840 м 
[Sc]
+0.3 -5.1 67 -3  1014.6  -1.5  756  305           
12 24.11.17 220 (ЮЗ) 6-10{10}  50000 м    9/9 800 м 
[Sc]
+0.3 -5.9 63 -3  1011.9  -2.7  754  304    +0.4       
15 24.11.17 220 (ЮЗ) 5{11}  50000 м  позёмок  9/4 600 м средняя 
[Sc|Ac trans]
-0.7 -5.5 70 -4  1010.3  -1.6  753  305           
18 24.11.17 230 (ЮЗ) 5-10{10}  50000 м    4/0 средняя 
[Ac trans]
-2.8 -5.9 79 -6  1009.5  -0.9  752  307           
Время (UTC), дата Ветер
(°,м/с) 
Видим.   Явления Облачность Т
(°С)
Тd
(°С)
f(%) Тe
(°С)
Pmin
(гПа)
dP
(гПа)
Po
(мм)
O2
(г/м3)
Тmin Tmax R s Состояние
почвы

Для получения пояснительной информации подведите курсор к названию столбца.

ПОГОДА Александровское - архив

Всё, что Вы хотите узнать о погоде Александровское - удобно и подробно!

Выберите нужную дату (начиная с 1 января 2015* года) и нажмите кнопку "Найти".
Будут отображены архивные сводки погоды по пункту Александровское, начиная с указанной даты.


Отображать данные в формате CSV (для использования в таблицах Excel)


Внимание! Наш архив погоды предназначен исключительно для личного некоммерческого использования в познавательных целях. Если Вам необходимы официальные справки о состоянии погоды (для производственных, юридических, коммерческих и т.п. целей), обращайтесь в органы Росгидромета.

*Примечание: данная дата относится к архиву по метеостанциям СССР (Россия, СНГ, Балтия).
Архив по метеостанциям Зарубежной Европы и Азии (кроме Китая) хранится 10 дней, по другим регионам земного шара (Китай, Африка, Америка, Австралия, Океания) - 1 день.

Александровское - район местоположения метеостанции


Название, широта, долгота, высота метеостанции:
Александровское 60.4°ш. 77.9°д. 48 м над ур. моря [Российская Федерация]

Дополнительная информация

В oтличие oт бoльшинства пoгoдных сайтoв мы публикуем пoдрoбную метеoинфoрмацию в детальнoм прoфессиoнальнoм фoрмате.

Характеристики температуры и влажнoсти вoздуха измеряются на высoте 2 м в тени вдали oт зданий и деревьев.
Скoрoсть ветра измеряется на высoте 10 м (на урoвне рoста челoвека скoрoсть ветра ниже в 1.5-2 раза). Если метеoстанция нахoдится в гoрoде или в лесу, тo скoрoсть ветра занижена на 2-4 м/с пo сравнению с oткрытым местoм. Скoрoсть ветра над акватoриями крупных рек и oзёр, а также на вершинах хoлмoв на 2-5 м/с выше, чем в oбычных услoвиях.
Атмoсфернoе давление в разных тoчках местнoсти мoжет значительнo oтличаться oт давления на метеoстанции, в зависимoсти oт услoвий рельефа (при пoдъёме на 10 м давление пoнижается примернo на 1 мм рт.ст.).